Location: Cargill Incorporated Elevator
(42.7294°N, 93.7333°W)
Time: 04:41:58
(UTC+00:00)

Cosmos 1339 Rocket - Pass Details

Date: 19 January 2026
Orbit: 941 x 1006 km, 82.9° (Epoch: 15 February)

Event Time Altitude Azimuth Distance (km) Brightness Sun altitude
Rises 12:05:20 0° 349° (N) 3,615 7.3 -17.2°
Reaches altitude 10° 12:07:50 10° 348° (NNW) 2,668 6.6 -16.8°
Maximum altitude 12:13:53 71° 266° (W) 1,003 4.4 -15.7°
Drops below altitude 10° 12:19:57 10° 183° (S) 2,679 6.9 -14.6°
Sets 12:22:27 0° 182° (S) 3,629 7.7 -14.2°
